Regional Weather Roundup
Issued by NWS

Home | Current Version | Previous Version | Graphics & Text | Print | Product List | Glossary On
Versions: 1 2 3 4 5 6 7 8 9 10 11 12 13 14 15 16 17 18 19 20 21 22 23 24 25 26 27 28 29 30 31 32 33 34 35 36 37 38 39 40 41 42 43 44 45 46 47 48 49 50
000
ASUS43 KOAX 131110
RWRNE

WEATHER ROUNDUP FOR NEBRASKA
NATIONAL WEATHER SERVICE OMAHA NE
600 AM CDT SUN JUL 13 2014

NOTES: SATELLITE DATA IS BEING USED TO AUGMENT CLOUD COVER ABOVE
       12000 FEET.
       "FAIR" INDICATES FEW OR NO CLOUDS BELOW 12,000 FEET WITH NO
       SIGNIFICANT WEATHER AND/OR OBSTRUCTIONS TO VISIBILITY.

  * THESE STATIONS DO NOT REPORT WEATHER SUCH AS RAIN...SNOW OR FOG.

NEZ001>004-019>022-054>056-131200-
NEBRASKA PANHANDLE

CITY           SKY/WX    TMP DP  RH WIND       PRES   REMARKS
SCOTTSBLUFF    CLEAR     62  60  93 CALM      30.25S
ALLIANCE       PTCLDY    57  56  96 CALM      30.24R
CHADRON        CLEAR     57  54  89 SW5       30.21S
KIMBALL        CLEAR     60  59  95 CALM      30.28S
SIDNEY         CLEAR     58  56  93 NW8       30.28R
$$

NEZ057>060-069>072-079>082-131200-
SOUTHWEST NEBRASKA

CITY           SKY/WX    TMP DP  RH WIND       PRES   REMARKS
NORTH PLATTE   PTCLDY    59  58  96 CALM      30.20R
IMPERIAL       PTCLDY    62  59  90 W3        30.22R
LEXINGTON      MOCLDY    64  63  97 W5        30.17R FOG
MCCOOK         MOCLDY    65  64  97 W6        30.20R
OGALLALA       CLEAR     59  59  97 CALM      30.22R
$$

NEZ005>010-023>029-035>040-094-131200-
NORTH CENTRAL NEBRASKA

CITY           SKY/WX    TMP DP  RH WIND       PRES   REMARKS
VALENTINE      CLEAR     61  60  97 SW6       30.14R
AINSWORTH      CLEAR     62  61  97 W5        30.15R
BROKEN BOW     FOG       60  59  96 CALM      30.15R VSB 1/2
O`NEILL        CLEAR     62  60  90 CALM      30.11R
ORD            CLEAR     60  59  96 CALM      30.11R
THEDFORD       CLEAR     62  61  96 W3        30.19R
$$

NEZ041-046>049-061>064-073>077-083>087-131200-
SOUTH CENTRAL NEBRASKA

CITY           SKY/WX    TMP DP  RH WIND       PRES   REMARKS
GRAND ISLAND   CLEAR     65  63  93 W3        30.11R
AURORA         CLEAR     64  64 100 W5        30.11R FOG
HASTINGS       PTCLDY    65  61  87 NW5       30.12R
HEBRON         PTCLDY    69  67  90 CALM      30.07S FOG
HOLDREGE       PTCLDY    64  62  96 W5        30.15R FOG
KEARNEY *      PTCLDY    64  63  94 NW6       30.14R
YORK           CLEAR     63  63 100 MISG      30.09S FOG
$$

NEZ011>018-030>034-042>045-131200-
NORTHEAST NEBRASKA

CITY           SKY/WX    TMP DP  RH WIND       PRES   REMARKS
NORFOLK        FOG       62  61  96 CALM      30.09R VSB 1/2
ALBION         CLEAR     61  60  94 CALM      30.10R
BLAIR          CLEAR     66  63  90 CALM      30.06R FOG
TEKAMAH        CLEAR     63  62  97 SW3       30.04R
WAYNE          CLEAR     62  62  98 S5        30.08R
$$

NEZ050>053-065>068-078-088>093-131200-
SOUTHEAST NEBRASKA

CITY           SKY/WX    TMP DP  RH WIND       PRES   REMARKS
LINCOLN        PTCLDY    66  63  90 N9        30.07R
OMAHA EPPLEY   MOCLDY    67  65  93 CALM      30.05R
BEATRICE       MOCLDY    65  65  99 N6        30.04S
FALLS CITY     CLOUDY    71  71 100 N3        30.01F
NEBRASKA CITY  MOCLDY    67  67 100 CALM      30.04S
PLATTSMOUTH    PTCLDY    65  63  93 CALM      30.05R FOG
$$

NEZ044-045-051>053-067-131200-
OMAHA AREA

CITY           SKY/WX    TMP DP  RH WIND       PRES   REMARKS
OMAHA EPPLEY   MOCLDY    67  65  93 CALM      30.05R
BLAIR          CLEAR     66  63  90 CALM      30.06R FOG
MILLARD        CLEAR     66  65  95 CALM      30.05S FOG
OFFUTT AFB     CLEAR     67  67 100 W2        30.04R
PLATTSMOUTH    PTCLDY    65  63  93 CALM      30.05R FOG
WAHOO          FAIR      67  64  90 W3        30.07R
$$


USA.gov is the U.S. government's official web portal to all federal, state and local government web resources and services.